Flag for U.S.A. Weather past 2 weeks in Lexington-Fayette, Kentucky, U.S.A.

Now
63 °F

Low clouds.


Feels Like: 63 °F
Forecast: 58 / 69 °F
Wind: 8 mph from Northeast

Location: Blue Grass Airport

Current Time: Sep 16, 2014 at 11:32:15 AM

Latest Report: Sep 16, 2014 at 10:54 AM


Visibility: 10 mi

Pressure: 30.13 "Hg

Humidity: 84%

Dew point: 58 °F

Location of Lexington-FayetteLocation

Historic Weather in Lexington-Fayette — Graph

°F

Lexington-Fayette temperature yesterday

Maximum temperature yesterday: 76 °F (at 3:54 PM)
Minimum temperature yesterday: 52 °F (at 6:54 AM)
Average temperature yesterday: 64 °F

Past Weeks' High & Low Weather Summary

 TemperatureHumidityPressure
High91 °F (Sep 5, 4:54 PM)94% (Sep 9, 4:54 AM)30.29 "Hg (Sep 9, 4:54 AM)
Low49 °F (Sep 14, 6:54 AM)36% (Sep 7, 4:54 PM)29.83 "Hg (Sep 10, 7:54 PM)
Average71 °F75%30.07 "Hg
* Reported Sep 1 9:54 AM — Sep 16 9:54 AM, Lexington-Fayette, Weather by CustomWeather, © 2014

Note: Actual official high and low records may vary slightly from our data, if they occured in-between our weather recording intervals... More about our weather records

Advertising

Lexington-Fayette weather history for previous 24 hours

 ConditionsComfort  
Time TempWeatherWind HumidityBarometerVisibility
9:54 AM
Sep 16
63 °FMostly cloudy.7 mph84%30.13 "Hg9 mi
8:54 AM61 °FFog.9 mph90%30.12 "Hg5 mi
7:54 AM62 °FFog.12 mph90%30.10 "Hg1 mi
6:54 AM63 °FFog.9 mph90%30.09 "Hg5 mi
5:54 AM64 °FFog.5 mph90%30.06 "Hg5 mi
4:54 AM64 °FLight rain. Fog.No wind90%30.06 "Hg6 mi
3:54 AM65 °FLight rain. Mostly cloudy.3 mph87%30.06 "Hg10 mi
2:54 AM65 °FOvercast.No wind87%30.07 "Hg10 mi
1:54 AM65 °FMostly cloudy.7 mph87%30.07 "Hg10 mi
12:54 AM64 °FMostly cloudy.6 mph87%30.07 "Hg10 mi
11:54 PM
Sep 15
65 °FMostly cloudy.6 mph81%30.07 "Hg10 mi
10:54 PM66 °FMostly cloudy.9 mph75%30.07 "Hg10 mi
9:54 PM63 °FLight rain. Overcast.5 mph84%30.10 "Hg10 mi
8:54 PM63 °FLight rain. Mostly cloudy.10 mph84%30.15 "Hg10 mi
7:54 PM70 °FOvercast.7 mph55%30.05 "Hg10 mi
6:54 PM71 °FMore clouds than sun.3 mph51%30.10 "Hg10 mi
5:54 PM73 °FOvercast.7 mph53%30.12 "Hg10 mi
4:54 PM75 °FSunny.3 mph50%30.12 "Hg10 mi
3:54 PM76 °FScattered clouds.6 mph47%30.13 "Hg10 mi
2:54 PM75 °FScattered clouds.3 mph45%30.14 "Hg10 mi
1:54 PM74 °FSunny.6 mph50%30.15 "Hg10 mi
12:54 PM75 °FSunny.No wind48%30.15 "Hg10 mi
11:54 AM72 °FSunny.3 mph53%30.17 "Hg10 mi
Weather by CustomWeather, © 2014

See weather overviewHow to use our weather pages